Hanford, CA

2:06 AM PST on November 15, 2019 (GMT -0800)
Hanford Municipal

Weather History for KHJO - October, 2019

Change the Weather History Date:

Monday, October 21, 2019

  Actual Average Record
Temperature  
Mean Temperature 63 °F 62 °F  
Max Temperature 81 °F 77 °F 91 °F (2003)
Min Temperature 45 °F 46 °F 37 °F (2007)
Degree Days  
Heating Degree Days 2    
Month to date heating degree days 48  
Since 1 July heating degree days 56  
Cooling Degree Days 0    
Month to date cooling degree days 17  
Year to date cooling degree days 2017  
Growing Degree Days 14 (Base 50)    
Moisture  
Dew Point 46 °F    
Average Humidity 61    
Maximum Humidity 93    
Minimum Humidity 28    
Precipitation  
Precipitation 0.00 in 0.02 in 0.16 in (1941)
Month to date precipitation T 0.23  
Year to date precipitation 7.63 7.20  
Snow  
Snow 0.00 in - - ()
Month to date snowfall 0.0  
Since 1 July snowfall 0.0  
Since 1 September snowfall 0.0  
Snow Depth 0.00 in    
Sea Level Pressure  
Sea Level Pressure 30.14 in    
Wind  
Wind Speed 2 mph (North)    
Max Wind Speed 7 mph    
Max Gust Speed 11 mph    
Visibility 8 miles    
Events      
T = Trace of Precipitation, MM = Missing Value Source: NWS Daily Summary

Daily Weather History Graph

Daily Weather History Graph

Search for Another Location

Airport or City:

Astronomy

Oct. 21, 2019 Rise Set
Actual Time 7:10 AM PDT 6:14 PM PDT
Civil Twilight 6:44 AM PDT 6:40 PM PDT
Nautical Twilight 6:14 AM PDT 7:10 PM PDT
Astronomical Twilight 5:44 AM PDT 7:40 PM PDT
Moon No Moon Rise 2:27 PM PDT (10/21)
Length of Visible Light 11h 56m
Length of Day
11h 03m
Waning Gibbous, 47% of the Moon is Illuminated
Oct 21
Waning Gibbous
Oct 27
New
Nov 4
First Quarter
Nov 12
Full
Nov 19
Last Quarter

Hourly Weather History & Observations

Time (PDT) Temp. Dew Point Humidity Pressure Visibility Wind Dir Wind Speed Gust Speed Precip Events Conditions
12:53 AM 51.1 °F 46.9 °F 86% 30.13 in 9.0 mi Calm Calm - N/A   Clear
1:53 AM 50.0 °F 46.0 °F 86% 30.13 in 8.0 mi Calm Calm - N/A   Clear
2:53 AM 48.0 °F 45.0 °F 89% 30.12 in 7.0 mi SSE 3.5 mph - N/A   Clear
3:53 AM 48.0 °F 44.1 °F 86% 30.12 in 7.0 mi Calm Calm - N/A   Clear
4:53 AM 46.9 °F 44.1 °F 90% 30.12 in 6.0 mi Calm Calm - N/A   Clear
5:53 AM 46.9 °F 44.1 °F 90% 30.13 in 5.0 mi ESE 3.5 mph - N/A   Clear
6:53 AM 46.9 °F 44.1 °F 90% 30.14 in 5.0 mi Calm Calm - N/A   Clear
7:53 AM 48.0 °F 46.0 °F 93% 30.16 in 3.0 mi SE 4.6 mph - N/A   Clear
8:53 AM 55.9 °F 48.0 °F 75% 30.18 in 6.0 mi South 3.5 mph - N/A   Haze
9:53 AM 64.0 °F 48.9 °F 58% 30.19 in 7.0 mi SW 3.5 mph - N/A   Clear
10:53 AM 70.0 °F 44.1 °F 39% 30.18 in 10.0 mi South 4.6 mph - N/A   Clear
11:53 AM 72.0 °F 43.0 °F 35% 30.17 in 7.0 mi Calm Calm - N/A   Clear
12:53 PM 75.0 °F 41.0 °F 29% 30.15 in 10.0 mi Calm Calm - N/A   Clear
1:53 PM 77.0 °F 42.1 °F 29% 30.13 in 8.0 mi SW 4.6 mph - N/A   Clear
2:53 PM 79.0 °F 43.0 °F 28% 30.11 in 9.0 mi Variable 3.5 mph - N/A   Clear
3:53 PM 81.0 °F 45.0 °F 28% 30.11 in 8.0 mi North 4.6 mph - N/A   Clear
4:53 PM 79.0 °F 46.0 °F 31% 30.11 in 8.0 mi North 4.6 mph - N/A   Clear
5:53 PM 75.9 °F 46.0 °F 35% 30.11 in 10.0 mi NNW 4.6 mph - N/A   Clear
6:53 PM 66.9 °F 48.0 °F 51% 30.13 in 10.0 mi Calm Calm - N/A   Clear
7:53 PM 64.0 °F 48.0 °F 56% 30.15 in 10.0 mi NW 3.5 mph - N/A   Clear
8:53 PM 61.0 °F 48.0 °F 62% 30.16 in 10.0 mi NW 3.5 mph - N/A   Clear
9:53 PM 57.9 °F 48.0 °F 70% 30.17 in 10.0 mi North 3.5 mph - N/A   Clear
10:53 PM 55.9 °F 48.0 °F 75% 30.18 in 10.0 mi NE 3.5 mph - N/A   Clear
11:53 PM 55.0 °F 48.0 °F 77% 30.19 in 9.0 mi Calm Calm - N/A   Clear